Regional Weather Roundup
Issued by NWS Little Rock, AR

Home | Current Version | Previous Version | Text Only | Print | Product List | Glossary Off
Versions: 1 2 3 4 5 6 7 8 9 10 11 12 13 14 15 16 17 18 19 20 21 22 23 24 25 26 27

000
ASUS44 KLZK 180305
RWRLZK

WEATHER ROUNDUP FOR ARKANSAS
NATIONAL WEATHER SERVICE LITTLE ROCK AR
1000 PM CDT THU APR 17 2014

NOTE: "FAIR" INDICATES FEW OR NO CLOUDS BELOW 12,000 FEET WITH NO
SIGNIFICANT WEATHER AND/OR OBSTRUCTIONS TO VISIBILITY.

ARZ001-003-010-029-180400-
NORTHWEST ARKANSAS

CITY           SKY/WX    TMP DP  RH WIND       PRES   REMARKS
FAYETTEVILLE   MOCLDY    56  42  59 CALM      30.23S
FORT SMITH     CLOUDY    63  43  48 N10       30.20R
HARRISON       MOCLDY    56  38  50 NW3       30.23R
BENTONVILLE    CLOUDY    55  39  54 E6        30.23S
ROGERS         CLOUDY    55  41  59 E5        30.23F
SILOAM SPGS    MOCLDY    55  37  50 CALM      30.24R
HIGHFILL       CLOUDY    55  42  61 E5        30.22S
$$

ARZ004-005-016-180400-
NORTH CENTRAL ARKANSAS

CITY           SKY/WX    TMP DP  RH WIND       PRES   REMARKS
BATESVILLE     PTCLDY    59  41  51 SE3       30.23R
FLIPPIN        MOCLDY    57  34  41 E6        30.23R
MTN HOME       MOCLDY    60  36  40 SE8       30.22R
$$

ARZ040-041-180400-
WEST CENTRAL ARKANSAS

CITY           SKY/WX    TMP DP  RH WIND       PRES   REMARKS
MENA           CLOUDY    59  45  58 CALM      30.20S
MOUNT IDA      CLOUDY    56  47  71 CALM      30.18R
$$

ARZ009-017-025-026-028-180400-
NORTHEAST ARKANSAS

CITY           SKY/WX    TMP DP  RH WIND       PRES   REMARKS
CORNING        FAIR      55  46  71 E5        30.24S
JONESBORO      PTCLDY    54  45  71 NE6       30.23S
NEWPORT        PTCLDY    58  51  77 CALM      30.23F
WALNUT RIDGE   MOCLDY    57  48  72 E5        30.23S
BLYTHEVILLE    MOCLDY    55  47  74 N3        30.24R
$$

ARZ022-023-033-042-044-180400-
CENTRAL ARKANSAS

CITY           SKY/WX    TMP DP  RH WIND       PRES   REMARKS
LITTLE ROCK    MOCLDY    61  46  57 SE5       30.22R
N LITTLE ROCK  MOCLDY    60  49  67 CALM      30.22R
JACKSONVILLE   CLOUDY    59  46  63 CALM      30.22R
SEARCY         MOCLDY    59  50  72 CALM      30.23S
HOT SPRINGS    CLOUDY    59  43  55 E3        30.22R
RUSSELLVILLE   CLOUDY    59  44  57 CALM      30.21R
CLINTON        CLOUDY    57  46  67 CALM      30.24R
$$

ARZ036-180400-
EAST ARKANSAS

CITY           SKY/WX    TMP DP  RH WIND       PRES   REMARKS
WEST MEMPHIS   HAZE      58  47  66 E3        30.22S VSB 3/4
$$

ARZ050-053-066-070-073-180400-
SOUTHWEST ARKANSAS

CITY           SKY/WX    TMP DP  RH WIND       PRES   REMARKS
ARKADELPHIA    FAIR      55  52  90 CALM      30.23R
CAMDEN         MOCLDY    55  46  71 MISG      30.21R
TEXARKANA      CLOUDY    56  44  64 CALM      30.20S
EL DORADO      MOCLDY    54  50  86 CALM      30.20R
DE QUEEN       CLOUDY    56  52  86 N3        30.18S
$$

ARZ056-057-069-180400-
SOUTHEAST ARKANSAS

CITY           SKY/WX    TMP DP  RH WIND       PRES   REMARKS
PINE BLUFF     MOCLDY    57  49  74 CALM      30.22R
STUTTGART      MOCLDY    61  46  59 E3        30.22S
MONTICELLO     LGT RAIN  55  50  83 CALM      30.20S

$$





USA.gov is the U.S. government's official web portal to all federal, state and local government web resources and services.